COSMOS 2251 DEB, 34307

Orbit data source: Space-Track

COSMOS 2251 DEB, 34307 is space debris in LEO originally from a launch on Wed, 16 Jun 1993 UTC launched from the Plesetsk Missile And Space Complex (PKMTR). The debris from Iridium 33, an American commercial communications satellite, has been tracked extensively since its accidental collision with the defunct Russian satellite Cosmos 2251 in 2009. This event, occurring at high speed in low Earth orbit (LEO), generated thousands of pieces of space debris, significantly increasing the risk of further collisions. The Iridium 33 debris cloud has impacted space traffic management and orbital debris mitigation strategies, making it a subject of ongoing study in space situational awareness.

Loading next visibility...
Identifier
34307, 1993-036ND
Orbit
LEO
Country
Flag of CISCIS
Related business
Manufacturer
Unknown
Mission
Spacecraft
Bus & Motor
Unknown
Mass
Unknown
Launch date (UTC)
1993-06-16 (33 years ago)
Launch vehicle
Unknown
Launch site
Plesetsk Missile And Space Complex (PKMTR)
Object type
Payload
Rocket body
Debris
Shape & HBR
Unknown shape, 0.1 m
Radar Cross Section
Small (<0.1 m²)

Expand to show TLE details & history
Last TLE update: 7 hours ago

TLE from 7 hours ago
0 COSMOS 2251 DEB
1 34307U 93036ND  26238.44960829  .00000567  00000-0  52482-3 0  9993
2 34307  74.0504 261.0312 0391130  35.8391  29.9121 13.54719571863385
Epoch: 2026-08-26T10:47Z
TLE epoch observation values (Epoch: 2026-08-26T10:47:26.156Z)
Latitude
63.23026°
Longitude
158.76751°
Altitude
816.388 km
Speed
7.575 km/s
True Right ascension
19h 41m 18s
True Declination
63° 05' 34"
Sunlit
Object was in daylight at epoch
Visualization orbit readout
Latitude
Unknown
Longitude
Unknown
Altitude
Unknown
Speed
Unknown
Apparent Right ascension
Unknown
Apparent Declination
Unknown
Sunlit
N/A
Visualization observer readout
Local Sidereal Time
09:32:55
Azimuth
Unknown
Elevation
Unknown
Doppler factor
Unknown
Orbital elements
Apogee altitude
1,343.294 km
Perigee altitude
762.013 km
Semi-major axis
7,430.79 km
Eccentricity
0.03911
Inclination
74.0504°
RAAN
261.0312°
Arg. of periapsis
35.8391°
True anomaly
32.24523°
Mean anomaly
29.9121°
Eccentric anomaly
31.0686°
Mean motion
3.38837 °/min
Orbital period
106.25 mins
BSTAR
0.00052482
Loading maneuver chart data...
Computing Atmospheric mass density...

Documentation

Showing up to 5 results
|